Home   Weather   Prague   Past weeks
Flag for Czech Republic

Past Weather in Prague, Czech Republic — Yesterday and Last 2 Weeks

Now
43 °F

Passing clouds.


Feels Like: 35 °F
Forecast: 38 / 27 °F
Wind: 17 mph from Southwest

Location: Václav Havel Airport Prague

Current Time: Jan 17, 2019 at 6:19:27 pm

Latest Report: Jan 17, 2019 at 5:30 pm


Visibility: N/A

Pressure: 29.62 "Hg

Humidity: 76%

Dew Point: 36 °F

Location of PragueLocation

Past Weather in Prague — Graph

°F

Prague Temperature Yesterday

Maximum temperature yesterday: 41 °F (at 12:00 pm)
Minimum temperature yesterday: 36 °F (at 6:30 pm)
Average temperature yesterday: 38 °F

High & Low Weather Summary for the Past Weeks

 TemperatureHumidityPressure
High43 °F (Jan 5, 1:00 pm)100% (Jan 3, 7:39 pm)30.48 "Hg (Jan 3, 7:39 pm)
Low14 °F (Jan 11, 5:30 am)56% (Jan 14, 11:30 am)29.24 "Hg (Jan 13, 10:30 pm)
Average33 °F85%29.96 "Hg
* Reported Jan 2 5:06 pm — Jan 17 5:00 pm, Prague. Weather by CustomWeather, © 2019

Note: Actual official high and low records may vary slightly from our data, if they occured in-between our weather recording intervals... More about our weather records

Advertising

Prague Weather History for the Previous 24 Hours

Scroll right to see more
 ConditionsComfort  
Time TempWeatherWind HumidityBarometerVisibility
5:00 pm
Thu, Jan 17
43 °FPassing clouds.22 mph76%29.59 "HgN/A
4:30 pm43 °FPartly sunny.20 mph76%29.59 "HgN/A
4:00 pm43 °FPartly sunny.17 mph76%29.59 "HgN/A
3:30 pm43 °FPartly sunny.15 mph76%29.59 "HgN/A
3:00 pm43 °FPartly sunny.14 mph76%29.59 "HgN/A
2:30 pm43 °FPartly sunny.16 mph76%29.59 "HgN/A
2:00 pm43 °FPartly sunny.15 mph76%29.59 "HgN/A
1:30 pm43 °FPartly sunny.10 mph76%29.62 "HgN/A
1:00 pm43 °FPartly sunny.13 mph76%29.62 "HgN/A
12:30 pm43 °FPartly sunny.14 mph76%29.62 "HgN/A
12:00 pm43 °FLight rain. Partly sunny.17 mph71%29.62 "HgN/A
11:30 am43 °FPassing clouds.15 mph71%29.65 "HgN/A
11:00 am43 °FPassing clouds.15 mph71%29.65 "HgN/A
10:30 am41 °FScattered clouds.15 mph70%29.65 "HgN/A
10:00 am41 °FScattered clouds.21 mph70%29.65 "HgN/A
9:30 am41 °FScattered clouds.21 mph70%29.65 "HgN/A
9:00 am39 °FPartly sunny.17 mph75%29.65 "HgN/A
8:00 am39 °FPassing clouds.17 mph70%29.62 "HgN/A
7:30 am39 °FPassing clouds.21 mph70%29.62 "HgN/A
7:00 am39 °FPassing clouds.21 mph70%29.62 "HgN/A
6:30 am39 °FPassing clouds.23 mph70%29.62 "HgN/A
6:00 am39 °FPassing clouds.21 mph65%29.62 "HgN/A
5:30 am39 °FPassing clouds.20 mph65%29.62 "HgN/A
5:00 am39 °FPassing clouds.21 mph61%29.62 "HgN/A
4:30 am39 °FClear.21 mph61%29.62 "Hg10 mi
4:00 am39 °FClear.22 mph61%29.62 "Hg10 mi
3:30 am39 °FClear.24 mph61%29.62 "Hg10 mi
3:00 am39 °FClear.22 mph61%29.62 "Hg10 mi
2:30 am39 °FClear.21 mph61%29.62 "Hg10 mi
2:00 am39 °FClear.24 mph61%29.62 "Hg10 mi
1:30 am39 °FClear.22 mph61%29.65 "Hg10 mi
1:00 am37 °FPassing clouds.9 mph70%29.65 "HgN/A
12:30 am36 °FClear.8 mph70%29.68 "Hg10 mi
12:00 am36 °FClear.8 mph70%29.68 "Hg10 mi
11:30 pm
Wed, Jan 16
36 °FClear.9 mph75%29.71 "Hg10 mi
11:00 pm36 °FClear.16 mph75%29.71 "Hg10 mi
10:30 pm36 °FClear.12 mph75%29.71 "Hg10 mi
10:00 pm36 °FClear.13 mph75%29.71 "Hg10 mi
9:30 pm36 °FPassing clouds.9 mph75%29.71 "HgN/A
9:00 pm36 °FClear.12 mph75%29.71 "Hg10 mi
8:30 pm36 °FClear.14 mph75%29.74 "Hg10 mi
8:00 pm36 °FPassing clouds.7 mph81%29.74 "HgN/A
7:00 pm36 °FPassing clouds.6 mph81%29.77 "HgN/A
6:30 pm36 °FClear.6 mph81%29.77 "Hg10 mi
6:00 pm37 °FPassing clouds.9 mph75%29.77 "HgN/A
Weather by CustomWeather, © 2019

See weather overview